| time (UTC) | temp C | wind direction | speed KPH | gust KPH | rain 1hr cm | rain 24hr cm | rain mn cm | humidity % | barometer mb |
| 20260504081803 | 7 | 6 | 0.0 | 3.2 | 0.00 | 0.00 | 0.00 | 66 | 1014.6 |
| 20260504080903 | 7 | 357 | 1.6 | 3.2 | 0.00 | 0.00 | 0.00 | 67 | 1014.8 |
| 20260504050003 | 10 | 17 | 0.0 | 3.2 | 0.00 | 0.00 | 0.00 | 54 | 1015.1 |
| 20260504045617 | 10 | 21 | 0.0 | 3.2 | 0.00 | 0.00 | 0.00 | 54 | 1014.7 |
| 20260504044503 | 10 | 11 | 0.0 | 1.6 | 0.00 | 0.00 | 0.00 | 53 | 1014.9 |
| 20260504043603 | 10 | 283 | 0.0 | 1.6 | 0.00 | 0.00 | 0.00 | 52 | 1015.1 |
| 20260504042917 | 10 | 22 | 0.0 | 3.2 | 0.00 | 0.00 | 0.00 | 51 | 1015.0 |
| 20260504041803 | 11 | 251 | 0.0 | 1.6 | 0.00 | 0.00 | 0.00 | 51 | 1015.0 |
| 20260504040903 | 11 | 70 | 0.0 | 3.2 | 0.00 | 0.00 | 0.00 | 51 | 1014.9 |
| 20260504040217 | 11 | 45 | 0.0 | 3.2 | 0.00 | 0.00 | 0.00 | 50 | 1014.8 |
| 20260504035403 | 12 | 268 | 0.0 | 3.2 | 0.00 | 0.00 | 0.00 | 49 | 1014.7 |
| 20260504034718 | 12 | 301 | 0.0 | 4.8 | 0.00 | 0.00 | 0.00 | 49 | 1015.0 |
| 20260504033603 | 13 | 13 | 0.0 | 3.2 | 0.00 | 0.00 | 0.00 | 47 | 1014.7 |
| 20260504032703 | 13 | 256 | 0.0 | 1.6 | 0.00 | 0.00 | 0.00 | 46 | 1014.9 |
| 20260504031803 | 14 | 246 | 0.0 | 3.2 | 0.00 | 0.00 | 0.00 | 44 | 1014.4 |
| 20260504030903 | 15 | 92 | 0.0 | 3.2 | 0.00 | 0.00 | 0.00 | 42 | 1014.8 |
| 20260504030003 | 15 | 8 | 0.0 | 4.8 | 0.00 | 0.00 | 0.00 | 41 | 1014.6 |
| 20260504025403 | 15 | 16 | 0.0 | 4.8 | 0.00 | 0.00 | 0.00 | 41 | 1014.7 |
| 20260504024503 | 16 | 284 | 0.0 | 3.2 | 0.00 | 0.00 | 0.00 | 40 | 1014.6 |
| 20260504023603 | 16 | 239 | 0.0 | 4.8 | 0.00 | 0.00 | 0.00 | 38 | 1014.6 |
| 20260504022703 | 17 | 241 | 0.0 | 3.2 | 0.00 | 0.00 | 0.00 | 37 | 1014.6 |
| 20260504021803 | 17 | 270 | 1.6 | 8.0 | 0.00 | 0.00 | 0.00 | 35 | 1014.7 |
| 20260504020903 | 18 | 284 | 1.6 | 16.1 | 0.00 | 0.00 | 0.00 | 35 | 1014.7 |
| 20260504020003 | 18 | 296 | 3.2 | 16.1 | 0.00 | 0.00 | 0.00 | 34 | 1014.7 |
| 20260504015403 | 18 | 289 | 3.2 | 9.7 | 0.00 | 0.00 | 0.00 | 34 | 1014.9 |
| 20260504014503 | 18 | 295 | 1.6 | 8.0 | 0.00 | 0.00 | 0.00 | 34 | 1014.9 |
| 20260504013816 | 18 | 315 | 1.6 | 16.1 | 0.00 | 0.00 | 0.00 | 34 | 1014.8 |
| 20260504012703 | 18 | 281 | 1.6 | 4.8 | 0.00 | 0.00 | 0.00 | 33 | 1014.9 |
| 20260504011803 | 18 | 301 | 1.6 | 9.7 | 0.00 | 0.00 | 0.00 | 33 | 1015.0 |
| 20260504010903 | 19 | 306 | 1.6 | 14.5 | 0.00 | 0.00 | 0.00 | 32 | 1015.1 |
| 20260504010003 | 19 | 301 | 1.6 | 9.7 | 0.00 | 0.00 | 0.00 | 31 | 1015.0 |
| 20260504005403 | 19 | 295 | 3.2 | 11.3 | 0.00 | 0.00 | 0.00 | 31 | 1015.0 |
| 20260504004503 | 19 | 296 | 3.2 | 8.0 | 0.00 | 0.00 | 0.00 | 31 | 1015.1 |
| 20260504003603 | 19 | 310 | 3.2 | 14.5 | 0.00 | 0.00 | 0.00 | 30 | 1015.1 |
| 20260504002703 | 20 | 272 | 3.2 | 11.3 | 0.00 | 0.00 | 0.00 | 31 | 1015.3 |
| 20260504002017 | 20 | 273 | 3.2 | 9.7 | 0.00 | 0.00 | 0.00 | 30 | 1015.3 |
| 20260504000903 | 20 | 321 | 3.2 | 16.1 | 0.00 | 0.00 | 0.00 | 30 | 1015.5 |
| 20260504000003 | 20 | 285 | 3.2 | 11.3 | 0.00 | 0.00 | 0.00 | 30 | 1015.7 |
| 20260503235403 | 20 | 271 | 1.6 | 9.7 | 0.00 | 0.00 | 0.00 | 31 | 1015.3 |
| 20260503234503 | 20 | 292 | 3.2 | 16.1 | 0.00 | 0.00 | 0.00 | 30 | 1015.9 |
| 20260503233603 | 20 | 295 | 3.2 | 14.5 | 0.00 | 0.00 | 0.00 | 30 | 1015.7 |
| 20260503232703 | 20 | 279 | 3.2 | 12.9 | 0.00 | 0.00 | 0.00 | 30 | 1015.9 |
| 20260503231803 | 20 | 285 | 3.2 | 11.3 | 0.00 | 0.00 | 0.00 | 30 | 1015.6 |
| 20260503231118 | 20 | 294 | 3.2 | 11.3 | 0.00 | 0.00 | 0.00 | 31 | 1015.7 |
| 20260503230003 | 20 | 305 | 3.2 | 14.5 | 0.00 | 0.00 | 0.00 | 31 | 1016.1 |
| 20260503225404 | 20 | 305 | 3.2 | 16.1 | 0.00 | 0.00 | 0.00 | 32 | 1015.9 |
| 20260503224503 | 20 | 253 | 3.2 | 8.0 | 0.00 | 0.00 | 0.00 | 33 | 1016.0 |
| 20260503223603 | 20 | 313 | 3.2 | 14.5 | 0.00 | 0.00 | 0.00 | 32 | 1016.0 |
| 20260503222703 | 20 | 290 | 3.2 | 12.9 | 0.00 | 0.00 | 0.00 | 33 | 1016.0 |
| 20260503221804 | 20 | 256 | 3.2 | 12.9 | 0.00 | 0.00 | 0.00 | 32 | 1016.2 |
| 20260503220903 | 20 | 252 | 3.2 | 9.7 | 0.00 | 0.00 | 0.00 | 35 | 1016.1 |
| 20260503220003 | 20 | 326 | 3.2 | 11.3 | 0.00 | 0.00 | 0.00 | 34 | 1016.5 |
| 20260503215403 | 20 | 290 | 3.2 | 14.5 | 0.00 | 0.00 | 0.00 | 33 | 1016.4 |
| 20260503214503 | 20 | 276 | 3.2 | 11.3 | 0.00 | 0.00 | 0.00 | 35 | 1016.6 |
| 20260503213603 | 20 | 286 | 3.2 | 9.7 | 0.00 | 0.00 | 0.00 | 35 | 1016.6 |
| 20260503212918 | 20 | 282 | 3.2 | 9.7 | 0.00 | 0.00 | 0.00 | 35 | 1016.7 |
| 20260503211803 | 20 | 248 | 3.2 | 12.9 | 0.00 | 0.00 | 0.00 | 37 | 1016.8 |
| 20260503210903 | 19 | 260 | 3.2 | 12.9 | 0.00 | 0.00 | 0.00 | 36 | 1016.6 |
| 20260503210003 | 19 | 304 | 3.2 | 12.9 | 0.00 | 0.00 | 0.00 | 38 | 1016.9 |
| 20260503205403 | 19 | 313 | 3.2 | 12.9 | 0.00 | 0.00 | 0.00 | 38 | 1016.8 |
| 20260503204503 | 20 | 288 | 3.2 | 9.7 | 0.00 | 0.00 | 0.00 | 37 | 1016.4 |
| 20260503203603 | 19 | 271 | 3.2 | 8.0 | 0.00 | 0.00 | 0.00 | 38 | 1016.6 |
| 20260503202703 | 19 | 298 | 3.2 | 14.5 | 0.00 | 0.00 | 0.00 | 38 | 1017.0 |
| 20260503201803 | 19 | 291 | 3.2 | 11.3 | 0.00 | 0.00 | 0.00 | 37 | 1017.1 |
| 20260503201116 | 19 | 280 | 3.2 | 8.0 | 0.00 | 0.00 | 0.00 | 39 | 1017.0 |
| 20260503200218 | 19 | 270 | 3.2 | 9.7 | 0.00 | 0.00 | 0.00 | 40 | 1017.5 |
| 20260503195403 | 18 | 267 | 3.2 | 9.7 | 0.00 | 0.00 | 0.00 | 41 | 1017.4 |
| 20260503194717 | 18 | 298 | 3.2 | 9.7 | 0.00 | 0.00 | 0.00 | 41 | 1017.5 |
| 20260503193818 | 18 | 293 | 3.2 | 17.7 | 0.00 | 0.00 | 0.00 | 42 | 1017.5 |
| 20260503192703 | 18 | 336 | 4.8 | 22.5 | 0.00 | 0.00 | 0.00 | 40 | 1017.5 |
| 20260503191803 | 18 | 323 | 3.2 | 11.3 | 0.00 | 0.00 | 0.00 | 43 | 1017.6 |
| 20260503191118 | 18 | 293 | 3.2 | 11.3 | 0.00 | 0.00 | 0.00 | 42 | 1017.7 |
| 20260503190217 | 18 | 304 | 4.8 | 14.5 | 0.00 | 0.00 | 0.00 | 42 | 1017.8 |
| 20260503185403 | 17 | 322 | 4.8 | 14.5 | 0.00 | 0.00 | 0.00 | 42 | 1018.0 |
| 20260503184504 | 17 | 295 | 3.2 | 9.7 | 0.00 | 0.00 | 0.00 | 42 | 1018.0 |
| 20260503183603 | 17 | 297 | 3.2 | 16.1 | 0.00 | 0.00 | 0.00 | 42 | 1018.1 |
| 20260503182704 | 17 | 274 | 3.2 | 12.9 | 0.00 | 0.00 | 0.00 | 43 | 1018.0 |
| 20260503181803 | 17 | 289 | 3.2 | 12.9 | 0.00 | 0.00 | 0.00 | 43 | 1018.3 |
| 20260503180903 | 17 | 339 | 4.8 | 20.9 | 0.00 | 0.00 | 0.00 | 42 | 1018.3 |
| 20260503180003 | 17 | 286 | 3.2 | 19.3 | 0.00 | 0.00 | 0.00 | 42 | 1018.1 |
| 20260503175403 | 17 | 260 | 3.2 | 19.3 | 0.00 | 0.00 | 0.00 | 45 | 1018.0 |
| 20260503174503 | 16 | 233 | 3.2 | 9.7 | 0.00 | 0.00 | 0.00 | 44 | 1017.9 |
| 20260503173603 | 16 | 268 | 3.2 | 12.9 | 0.00 | 0.00 | 0.00 | 44 | 1018.3 |
| 20260503172703 | 15 | 266 | 1.6 | 8.0 | 0.00 | 0.00 | 0.00 | 47 | 1018.4 |
| 20260503171803 | 15 | 272 | 1.6 | 8.0 | 0.00 | 0.00 | 0.00 | 46 | 1018.5 |
| 20260503170903 | 15 | 266 | 1.6 | 8.0 | 0.00 | 0.00 | 0.00 | 46 | 1018.6 |
| 20260503150903 | 10 | 298 | 1.6 | 8.0 | 0.00 | 0.00 | 0.00 | 58 | 1019.0 |
| 20260503150218 | 10 | 305 | 1.6 | 4.8 | 0.00 | 0.00 | 0.00 | 59 | 1019.0 |